Tracking 19720 objects as of 26-Jun-2019
HD Live streaming from Space Station
objects crossing your sky now

DELTA 1 DEB

Track DELTA 1 DEB now!
10-day predictions


NORAD ID: 7160
Int'l Code: 1973-086DY
Perigee: 1,470.9 km
Apogee: 1,607.0 km
Inclination: 101.9 °
Period: 116.7 minutes
Semi major axis: 7909 km
RCS: 0.0715 m2 (small)
Launch date: November 6, 1973
Source: United States (US)
Launch site: AIR FORCE WESTERN TEST RANGE (AFWTR)

Note: This is SATELLITE DEBRIS
aabbcc
Your satellite tracking list
Your tracking list is empty




NASA's NSSDC Master Catalog

Two Line Element Set (TLE):
1  7160U 73086DY  19176.46345994 +.00000041 +00000-0 +67017-3 0  9995
2  7160 101.8689 165.5338 0086024 005.0336 151.9487 12.34085454051262
Source of the keplerian elements: AFSPC